Regional Weather Roundup
Issued by NWS State College, PA

Home | Current Version | Previous Version | Graphics & Text | Print | Product List | Glossary On
Versions: 1 2 3 4 5 6 7 8 9 10 11 12 13 14 15 16 17 18 19 20 21 22 23 24 25 26 27 28 29 30 31 32 33 34 35 36 37 38 39 40 41 42 43 44 45 46 47 48 49 50
000
ASUS41 KCTP 190703
RWRCTP

REGIONAL WEATHER ROUNDUP
NATIONAL WEATHER SERVICE STATE COLLEGE PA
200 AM EST FRI DEC 19 2014

Note: "fair" indicates few or no clouds below 12,000 feet with no
significant weather and/or obstructions to visibility.

* = STATION THAT DOES NOT REPORT PRECIPITATION /E.G. RAIN...SNOW...ETC/
    THUNDER OR FOG.

PAZ002>004-007>009-013>016-020>023-029>032-190800-
WESTERN PENNSYLVANIA

CITY           SKY/WX    TMP DP  RH WIND       PRES   REMARKS
ERIE           CLOUDY    32  24  72 NW14G22   30.12S
MEADVILLE      CLOUDY    28  26  92 W6        30.08S
FRANKLIN*      CLOUDY    28  25  86 W8        30.10R
NEW CASTLE       N/A     28  27  96 W6        30.14S FOG
BEAVER COUNTY  NOT AVBL
BUTLER*        CLOUDY    27  25  93 SW8       30.13S
PITTSBURGH INT CLOUDY    27  24  89 W7        30.14S
PITTSBURGH     CLOUDY    27  20  75 W9        30.13R
INDIANA*       CLOUDY    27  27 100 W10       30.13S FOG
LATROBE        CLOUDY    27  25  93 SW7       30.15S
WASHINGTON CO* NOT AVBL
$$

PAZ004>006-010>012-017>019-024>028-033>037-041-042-045-046-049>053-190800-
CENTRAL PENNSYLVANIA

CITY           SKY/WX    TMP DP  RH WIND       PRES   REMARKS
BRADFORD       CLOUDY    27  21  80 W13G21    29.99S
DUBOIS         CLOUDY    26  25  96 W10       30.03S FOG
CLEARFIELD     CLOUDY    28  24  85 W9        30.04F
JOHNSTOWN      CLOUDY    23  21  92 W12G21    30.02S FOG     WCI  12
ALTOONA        CLOUDY    28  23  81 W13       30.06S
STATE COLLEGE  CLOUDY    30  24  77 W9        30.04S
WILLIAMSPORT   CLOUDY    34  26  72 W9        30.03S
SELINSGROVE    CLOUDY    35  24  64 W6        30.05S
FT INDIANTOWN  CLOUDY    34  24  66 W7        30.04S
CAPITAL CITY   CLOUDY    34  24  67 W7        30.07R
HARRISBURG     CLOUDY    34  25  69 NW12      30.06S
YORK           CLOUDY    34  24  67 NW8       30.07R
$$

PAZ038>040-043-044-047-048-054-055-060>062-067>071-190800-
EASTERN PENNSYLVANIA

CITY           SKY/WX    TMP DP  RH WIND       PRES   REMARKS
SCRANTON       CLOUDY    34  23  64 NW13      29.98S
MOUNT POCONO   CLOUDY    29  21  72 NW15G24   29.90S
ALLENTOWN      CLOUDY    36  24  62 W10       30.00S
QUAKERTOWN*    CLOUDY    36  25  64 NW6       30.00S
READING        CLOUDY    35  24  64 W12       30.02S
LANCASTER      CLOUDY    34  24  67 W14       30.04S
COATESVILLE    CLOUDY    34  28  80 NW12      30.03R
POTTSTOWN      CLOUDY    34  25  69 W6        30.03S
BLUE BELL      CLOUDY    36  28  75 W6        30.01R
DOYLESTOWN     CLOUDY    34  26  72 W7        29.99S
WILLOW GROVE   NOT AVBL
NORTH PHILA    CLOUDY    38  24  57 W8        30.04R
PHILADELPHIA   CLOUDY    37  25  61 W10       30.04S
$$



USA.gov is the U.S. government's official web portal to all federal, state and local government web resources and services.